CZ-3B DEB, 40169

Orbit data source: Space-Track

CZ-3B DEB, 40169 is space debris in HEO originally from a launch on Sat, 04 Sep 2010 UTC launched from the Xichang Space Center, China (XSC). Debris objects in space refer to the collection of defunct objects orbiting the Earth. Examples of debris include non-operational satellites, rocket bodies, and fragments generated from explosions, collisions, or faulty payload assembly.

Loading next visibility...
CZ-3B DEB details
Identifier
40169, 2010-042W
Orbit
HEO
Last TLE update1 day ago
Origin
Flag of CNCASC (CN / PRC)
ManufacturerCALT
MissionSpacecraft
Bus & MotorUnknown
MassUnknown
Launch date (UTC)
2010-09-04 (14 years ago)
Launch vehicleUnknown
Launch site
Xichang Space Center, China (XSC)
Object type
Payload
Rocket body
Debris
Shape & HBRUnknown
Radar Cross SectionMedium (>0.1 m² and <1 m²)

Expand to show TLE details & history

TLE from 1 day ago
0 CZ-3B DEB
1 40169U 10042W   24360.87707184 -.00000087  00000-0  00000-0 0  9990
2 40169  27.1793   7.0837 7191783 179.4712 171.0248  1.93992126 87340
Epoch: 2024-12-25T21:02Z
Definitive object data (Epoch: 2024-12-25T21:02:59.006Z)
Latitude-1.21429°
Longitude-45.88914°
Altitude40,191.778 km
Speed1.562 km/s
True Right ascension00h 18m 53s
True Declination-1° 12' 47"
Sunlit
Object was in daylight at TLE epoch
Visualization TLE readout
Latitude-4.34692°
Longitude-52.26955°
Altitude38,725.258 km
Speed1.731 km/s
Apparent Right ascension00h 15m 22s
Apparent Declination-10° 00' 11"
Sunlit
Object is in daylight
Visualization observer readout
Local Sidereal Time20:08:38
Azimuth116.537° SE
Elevation14.289°
Doppler factor1
Orbital elements
Apogee altitude40,315.039 km
Perigee altitude1,249.028 km
Semi-major axis27,160.17 km
Eccentricity0.7191783
Inclination27.1793°
RAAN7.0837°
Arg. of periapsis179.4712°
True anomaly177.88757°
Mean anomaly171.0248°
Eccentric anomaly174.77634°
Mean motion0.48489 °/min
BSTARUnknown
Orbital period742.43 mins
Loading maneuver chart data...
Loading historical data...
Loading historical data...
Loading historical data...
Loading historical data...
Loading historical data...
Loading historical data...
Loading historical data...

CZ-3B DEB Visibility forecast

Observer location: undefined°, undefined

Span
Click to sort rows by Start time (UTC) header in descending order
Start Az.
Max El. time (UTC)
Max El. Az.
Max El.
End time (UTC)
End Az.
424 mins2024-12-26 20:45:45.311Z116.55° SE2024-12-27 02:40:45.311Z138.527° SSE39.807°2024-12-27 03:49:45.311Z87.858° E
40 mins2024-12-27 20:05:45.311Z121.098° SE2024-12-27 20:45:45.311Z123.134° SE15.555°2024-12-27 20:45:45.311Z123.134° SE
|